STARLINK-2404

Last updated on Sat May 08 2021 00:02:03 GMT+0000 (Coordinated Universal Time)

1 48093U 21027B 21127.58334491 -.00043528 00000-0 -30648-3 0 9994 2 48093 53.0471 191.7520 0003005 22.2751 277.6099 15.73251577 1776

Satellite not in orbit

STARLINK-2404